Weather History for Louisa, VA

Change the Weather History Date:

Sunday, November 4, 2012

  Actual Average (KCHO) Record (KCHO)
Temperature  
Mean Temperature 45 °F 51 °F  
Max Temperature 53 °F 62 °F 85 °F (1903)
Min Temperature 37 °F 39 °F 21 °F (2006)
Degree Days  
Heating Degree Days 20 14  
Month to date heating degree days 56  
Since 1 July heating degree days 405  
Cooling Degree Days 0 0  
Month to date cooling degree days 0  
Year to date cooling degree days 1034  
Moisture  
Dew Point 34 °F    
Average Humidity 68    
Maximum Humidity 87    
Minimum Humidity 50    
Precipitation  
Precipitation 0.00 in 0.13 in 1.04 in (2010)
Month to date precipitation 0.52  
Year to date precipitation 36.25  
Sea Level Pressure  
Sea Level Pressure 30.04 in    
Wind  
Wind Speed 1 mph (North)    
Max Wind Speed 7 mph    
Max Gust Speed -    
Visibility 10 miles    
Events      
T = Trace of Precipitation, MM = Missing Value Source: NWS Daily Summary

Daily Weather History Graph

Daily Weather History Graph

Search for Another Location

Airport:

Trip Planner

Search our weather history database for the weather conditions in past years. The results will help you decide how hot, cold, wet, or windy it might be!

Date:

Astronomy

Nov. 04, 2012 Rise Set
Actual Time 6:41 AM EST 5:09 PM EST
Civil Twilight 6:13 AM EST 5:36 PM EST
Nautical Twilight 5:42 AM EST 6:07 PM EST
Astronomical Twilight 5:11 AM EST 6:38 PM EST
Moon 9:46 PM EST (11/4) 11:22 AM EST (11/4)
Length of Visible Light 11h 22m
Length of Day
10h 27m
Waning Gibbous, 72% of the Moon is Illuminated
Nov 4
Waning Gibbous
Nov 6
Last Quarter
Nov 13
New
Nov 20
First Quarter
Nov 28
Full

Hourly Weather History & Observations

Time (EST) Temp. Windchill Dew Point Humidity Pressure Visibility Wind Dir Wind Speed Gust Speed Precip Events Conditions
12:15 AM 42.8 °F - 32.0 °F 66% 30.09 in 10.0 mi Calm Calm - N/A   Overcast
12:35 AM 42.8 °F 41.1 °F 32.0 °F 66% 30.10 in 10.0 mi SW 3.5 mph - N/A   Overcast
12:55 AM 42.8 °F - 30.2 °F 61% 30.09 in 10.0 mi Calm Calm - N/A   Overcast
1:15 AM 42.8 °F - 33.8 °F 70% 30.09 in 10.0 mi Calm Calm - N/A   Overcast
1:35 AM 42.8 °F - 33.8 °F 70% 30.08 in 10.0 mi Calm Calm - N/A   Overcast
1:55 AM 42.8 °F - 33.8 °F 70% 30.07 in 10.0 mi Calm Calm - N/A   Overcast
1:15 AM 42.8 °F - 33.8 °F 70% 30.07 in 10.0 mi Calm Calm - N/A   Overcast
1:35 AM 42.8 °F - 35.6 °F 76% 30.06 in 10.0 mi Calm Calm - N/A   Overcast
1:55 AM 42.8 °F - 35.6 °F 76% 30.05 in 10.0 mi Calm Calm - N/A   Overcast
2:15 AM 42.8 °F - 35.6 °F 76% 30.06 in 10.0 mi Calm Calm - N/A   Overcast
2:35 AM 42.8 °F - 35.6 °F 76% 30.05 in 10.0 mi Calm Calm - N/A   Overcast
2:55 AM 42.8 °F - 35.6 °F 76% 30.05 in 10.0 mi Calm Calm - N/A   Overcast
3:15 AM 42.8 °F - 35.6 °F 76% 30.04 in 10.0 mi Calm Calm - N/A   Overcast
3:35 AM 42.8 °F - 35.6 °F 76% 30.04 in 10.0 mi Calm Calm - N/A   Overcast
3:55 AM 42.8 °F 41.1 °F 33.8 °F 70% 30.05 in 10.0 mi WSW 3.5 mph - N/A   Overcast
4:15 AM 42.8 °F - 35.6 °F 76% 30.05 in 10.0 mi Calm Calm - N/A   Overcast
4:35 AM 42.8 °F - 35.6 °F 76% 30.06 in 10.0 mi Calm Calm - N/A   Overcast
4:55 AM 42.8 °F - 35.6 °F 76% 30.05 in 10.0 mi Calm Calm - N/A   Overcast
5:15 AM 42.8 °F - 35.6 °F 76% 30.06 in 10.0 mi Calm Calm - N/A   Overcast
5:35 AM 42.8 °F - 35.6 °F 76% 30.06 in 10.0 mi Calm Calm - N/A   Overcast
5:55 AM 42.8 °F - 35.6 °F 76% 30.06 in 10.0 mi Calm Calm - N/A   Overcast
6:15 AM 42.8 °F - 35.6 °F 76% 30.06 in 10.0 mi Calm Calm - N/A   Overcast
6:35 AM 42.8 °F - 35.6 °F 76% 30.07 in 10.0 mi Calm Calm - N/A   Overcast
6:55 AM 42.8 °F - 35.6 °F 76% 30.07 in 10.0 mi Calm Calm - N/A   Overcast
7:15 AM 42.8 °F - 35.6 °F 76% 30.08 in 10.0 mi Calm Calm - N/A   Overcast
7:35 AM 42.8 °F - 35.6 °F 76% 30.08 in 10.0 mi Calm Calm - N/A   Overcast
7:55 AM 42.8 °F - 35.6 °F 76% 30.08 in 10.0 mi Calm Calm - N/A   Overcast
8:15 AM 44.6 °F - 35.6 °F 71% 30.09 in 10.0 mi Calm Calm - N/A   Overcast
8:35 AM 44.6 °F - 35.6 °F 71% 30.09 in 10.0 mi Calm Calm - N/A   Overcast
8:55 AM 44.6 °F - 35.6 °F 71% 30.08 in 10.0 mi Calm Calm - N/A   Overcast
9:15 AM 44.6 °F - 35.6 °F 71% 30.08 in 10.0 mi Calm Calm - N/A   Overcast
9:35 AM 46.4 °F - 35.6 °F 66% 30.08 in 10.0 mi Calm Calm - N/A   Overcast
9:55 AM 46.4 °F 44.3 °F 35.6 °F 66% 30.07 in 10.0 mi South 4.6 mph - N/A   Overcast
10:15 AM 46.4 °F - 33.8 °F 62% 30.07 in 10.0 mi Calm Calm - N/A   Overcast
10:35 AM 46.4 °F - 33.8 °F 62% 30.06 in 10.0 mi Calm Calm - N/A   Overcast
10:55 AM 48.2 °F - 33.8 °F 58% 30.06 in 10.0 mi SSW 3.5 mph - N/A   Overcast
11:15 AM 48.2 °F - 33.8 °F 58% 30.05 in 10.0 mi Calm Calm - N/A   Overcast
11:35 AM 48.2 °F - 35.6 °F 62% 30.04 in 10.0 mi Calm Calm - N/A   Mostly Cloudy
11:55 AM 50.0 °F - 35.6 °F 58% 30.03 in 10.0 mi Calm Calm - N/A   Overcast
12:15 PM 50.0 °F - 33.8 °F 54% 30.02 in 10.0 mi South 4.6 mph - N/A   Overcast
12:35 PM 50.0 °F - 33.8 °F 54% 30.01 in 10.0 mi Calm Calm - N/A   Mostly Cloudy
12:55 PM 51.8 °F - 33.8 °F 50% 30.01 in 10.0 mi NW 5.8 mph - N/A   Overcast
1:15 PM 53.6 °F - 35.6 °F 51% 30.00 in 10.0 mi NW 6.9 mph - N/A   Overcast
1:35 PM 51.8 °F - 35.6 °F 54% 29.99 in 10.0 mi NNW 5.8 mph - N/A   Overcast
1:55 PM 51.8 °F - 35.6 °F 54% 29.99 in 10.0 mi West 4.6 mph - N/A   Mostly Cloudy
2:15 PM 51.8 °F - 35.6 °F 54% 29.99 in 10.0 mi Calm Calm - N/A   Scattered Clouds
2:35 PM 53.6 °F - 35.6 °F 51% 29.99 in 10.0 mi NNW 4.6 mph - N/A   Clear
2:55 PM 53.6 °F - 35.6 °F 51% 29.98 in 10.0 mi NW 3.5 mph - N/A   Clear
3:15 PM 53.6 °F - 35.6 °F 51% 29.98 in 10.0 mi NW 4.6 mph - N/A   Clear
3:35 PM 53.6 °F - 35.6 °F 51% 29.98 in 10.0 mi NNW 3.5 mph - N/A   Clear
3:55 PM 51.8 °F - 35.6 °F 54% 29.99 in 10.0 mi Calm Calm - N/A   Clear
4:15 PM 51.8 °F - 35.6 °F 54% 29.99 in 10.0 mi North 3.5 mph - N/A   Clear
4:35 PM 51.8 °F - 35.6 °F 54% 29.99 in 10.0 mi NE 3.5 mph - N/A   Clear
4:55 PM 46.4 °F - 37.4 °F 71% 29.99 in 10.0 mi Calm Calm - N/A   Clear
5:15 PM 42.8 °F - 37.4 °F 81% 30.00 in 10.0 mi Calm Calm - N/A   Clear
5:35 PM 41.0 °F - 37.4 °F 87% 30.00 in 10.0 mi Calm Calm - N/A   Clear
5:55 PM 39.2 °F 35.9 °F 35.6 °F 87% 30.00 in 10.0 mi NE 4.6 mph - N/A   Clear
6:15 PM 39.2 °F 35.9 °F 33.8 °F 81% 30.00 in 10.0 mi NE 4.6 mph - N/A   Clear
6:35 PM 39.2 °F - 33.8 °F 81% 30.01 in 10.0 mi Calm Calm - N/A   Clear
6:55 PM 37.4 °F - 33.8 °F 87% 30.02 in 10.0 mi Calm Calm - N/A   Clear
7:15 PM 37.4 °F 34.9 °F 33.8 °F 87% 30.02 in 10.0 mi NNE 3.5 mph - N/A   Clear
7:35 PM 42.8 °F 40.1 °F 33.8 °F 70% 30.02 in 10.0 mi NNE 4.6 mph - N/A   Clear
7:55 PM 42.8 °F 38.6 °F 33.8 °F 70% 30.03 in 10.0 mi NE 6.9 mph - N/A   Clear
8:15 PM 42.8 °F 38.6 °F 32.0 °F 66% 30.03 in 10.0 mi NE 6.9 mph - N/A   Clear
8:35 PM 42.8 °F 40.1 °F 30.2 °F 61% 30.04 in 10.0 mi NNE 4.6 mph - N/A   Clear
8:55 PM 41.0 °F 38.0 °F 30.2 °F 65% 30.04 in 10.0 mi NE 4.6 mph - N/A   Clear
9:15 PM 42.8 °F 38.6 °F 30.2 °F 61% 30.04 in 10.0 mi NNE 6.9 mph - N/A   Clear
9:35 PM 41.0 °F 37.1 °F 30.2 °F 65% 30.04 in 10.0 mi NNE 5.8 mph - N/A   Clear
9:55 PM 42.8 °F 39.3 °F 28.4 °F 57% 30.04 in 10.0 mi NNE 5.8 mph - N/A   Clear
10:15 PM 41.0 °F 38.0 °F 28.4 °F 61% 30.04 in 10.0 mi NNE 4.6 mph - N/A   Mostly Cloudy
10:35 PM 39.2 °F 35.9 °F 30.2 °F 70% 30.04 in 10.0 mi NNE 4.6 mph - N/A   Scattered Clouds
10:55 PM 39.2 °F 35.0 °F 28.4 °F 65% 30.04 in 10.0 mi NE 5.8 mph - N/A   Mostly Cloudy